User: anonymous   Login
Location: Cranbrook Institute of Science
(42.5830°N, 83.2450°W)
Time: 07:45:54
(UTC-04:00)
Language:

CZ-4B R/B - Orbit

View from above orbital plane
View from above orbital plane
View from above satellite
View from above satellite

Ground track
Ground track

The orbit data is extracted from the following two-line orbital elements,

1 29093U 06015B   16121.81732091  .00004396  00000-0  11684-3 0  9992
2 29093  97.4815 218.3410 0069828 358.4866   1.6155 15.36329428554141
Epoch (UTC): 30 April 2016 19:36:56
Eccentricity: 0.0069828
inclination: 97.4815°
perigee height: 409 km
apogee height: 505 km
right ascension of ascending node: 218.3410°
argument of perigee: 358.4866°
revolutions per day: 15.36329428
mean anomaly at epoch: 1.6155°
orbit number at epoch: 55414

The dashed part of the orbit path shows where the satellite is in the earth's shadow,  

DLR